Cape Peony — 3FDX6 — position and weather

sailwx.info

Track history (hours):
 
Tides and Currents Weather Stations Pressure Air Temp Water Temp Dewpoint Dewpoint Depression Visibility Wind Speed Wind Dir Waves Ship Positions

Cape Peony

Last reported at 2015-Aug-06 17:08 UTC. Time now 2015-Aug-28 09:31 UTC.
Position N 31°19' E 123°19'.
Warning: this ship's position is 21 days out of date.

Length 292 m; draft 9 m.

Type: Ship. MMSI: 373590000.

Date/timePositionNaut miles runAvg speedWind from/ knotsBaromVisibWave heightAir tempDewpointWater temp
2015-Aug-06 17:08N 31°19' E 123°19'10 9.9
2015-Aug-06 16:07N 31°14' E 123°09'2710.5
2015-Aug-06 13:32N 31°05' E 122°39'1110.7
2015-Aug-06 12:33N 31°05' E 122°27'1212.1
2015-Aug-06 11:33N 31°09' E 122°13'1413.6
2015-Aug-06 10:33N 31°15' E 121°59'1211.9
2015-Aug-06 09:33N 31°18' E 121°45'10 9.9
2015-Aug-06 08:33N 31°23' E 121°35'8 7.7
2015-Aug-06 07:33N 31°27' E 121°28'4 4.4
2015-Aug-06 06:33N 31°30' E 121°24'1010.1
2015-Aug-06 05:33N 31°37' E 121°15'1110.9
2015-Aug-06 04:33N 31°45' E 121°06'1312.8
2015-Aug-06 03:33N 31°52' E 120°53'7 1.3
2015-Aug-05 22:11N 31°59' E 120°51'0 0.0
2015-Aug-05 18:29N 31°59' E 120°51'0 0.0
2015-Aug-05 16:32N 31°59' E 120°51'0 0.0
2015-Aug-05 15:32N 31°59' E 120°51'0 0.0
2015-Aug-05 14:32N 31°59' E 120°51'0 0.0
2015-Aug-05 13:32N 31°59' E 120°51'0 0.0
2015-Aug-05 10:11N 31°59' E 120°51'0 0.0
2015-Aug-05 08:29N 31°59' E 120°51'0 0.0
2015-Aug-05 06:20N 31°59' E 120°51'0 0.0
2015-Aug-05 05:26N 31°59' E 120°51'0 0.0
2015-Aug-05 04:23N 31°59' E 120°51'0 0.0
2015-Aug-05 03:23N 31°59' E 120°51'0 0.0
2015-Aug-05 02:32N 31°59' E 120°51'0 0.1
2015-Aug-05 01:32N 31°59' E 120°51'0 0.0
2015-Aug-05 00:29N 31°59' E 120°51'0 0.0
2015-Aug-04 22:17N 31°59' E 120°51'0 0.0
2015-Aug-04 21:29N 31°59' E 120°51'0 0.0
2015-Aug-04 20:26N 31°59' E 120°51'0 0.0
2015-Aug-04 19:32N 31°59' E 120°51'0 0.0
2015-Aug-04 18:32N 31°59' E 120°51'0 0.0
2015-Aug-04 17:32N 31°59' E 120°51'0 0.0
2015-Aug-04 16:32N 31°59' E 120°51'0 0.0
2015-Aug-04 14:32N 31°59' E 120°51'0 0.0
2015-Aug-04 13:32N 31°59' E 120°51'0 0.0
2015-Aug-04 12:29N 31°59' E 120°51'0 0.0
2015-Aug-04 09:14N 31°59' E 120°51'0 0.0
2015-Aug-04 08:17N 31°59' E 120°51'0 0.0
2015-Aug-04 07:32N 31°59' E 120°51'0 0.0
2015-Aug-04 06:29N 31°59' E 120°51'0 0.0
2015-Aug-04 04:32N 31°59' E 120°51'0 0.0
2015-Aug-04 03:26N 31°59' E 120°51'0 0.0
2015-Aug-04 02:32N 31°59' E 120°51'0 0.0
2015-Aug-04 01:29N 31°59' E 120°51'0 0.0
2015-Aug-03 23:32N 31°59' E 120°51'0 0.0
2015-Aug-03 22:29N 31°59' E 120°51'0 0.0
2015-Aug-03 21:26N 31°59' E 120°51'0 0.0
2015-Aug-03 20:26N 31°59' E 120°51'0 0.0
2015-Aug-03 19:32N 31°59' E 120°51'0 0.0
2015-Aug-03 18:17N 31°59' E 120°51'0 0.0
2015-Aug-03 17:26N 31°59' E 120°51'0 0.0
2015-Aug-03 16:17N 31°59' E 120°51'0 0.0
2015-Aug-03 15:32N 31°59' E 120°51'0 0.0
2015-Aug-03 12:27N 31°59' E 120°51'3 3.0
2015-Aug-03 11:32N 31°56' E 120°52'4 4.4
2015-Aug-03 10:31N 31°52' E 120°54'4 4.1
2015-Aug-03 09:33N 31°48' E 120°55'8 7.6
2015-Aug-03 08:33N 31°46' E 121°04'1313.3
2015-Aug-03 07:33N 31°37' E 121°16'1212.4
2015-Aug-03 06:33N 31°29' E 121°27'9 8.5
2015-Aug-03 05:33N 31°24' E 121°34'9 9.1
2015-Aug-03 04:33N 31°19' E 121°44'1010.2
2015-Aug-03 03:33N 31°16' E 121°55'1110.4
2015-Aug-03 02:33N 31°13' E 122°07'1211.9
2015-Aug-03 01:33N 31°06' E 122°18'1111.0
2015-Aug-03 00:33N 31°07' E 122°31'8 7.3
2015-Aug-02 23:27N 31°08' E 122°40'0 0.5
2015-Aug-02 22:33N 31°09' E 122°40'0 0.0
2015-Aug-02 21:18N 31°09' E 122°40'0 0.1
2015-Aug-02 20:33N 31°09' E 122°40'0 0.0
2015-Aug-02 19:24N 31°09' E 122°40'0 0.1
2015-Aug-02 18:33N 31°09' E 122°40'0 0.1
2015-Aug-02 17:33N 31°09' E 122°40'0 0.1
2015-Aug-02 16:27N 31°09' E 122°40'0 0.1
2015-Aug-02 15:33N 31°09' E 122°40'0 0.0
2015-Aug-02 14:33N 31°09' E 122°40'0 0.1
2015-Aug-02 13:33N 31°09' E 122°40'0 0.2
2015-Aug-02 12:33N 31°09' E 122°40'0 0.2
2015-Aug-02 11:30N 31°09' E 122°40'0 0.1
2015-Aug-02 10:24N 31°09' E 122°40'0 0.1
2015-Aug-02 09:33N 31°09' E 122°40'0 0.1
2015-Aug-02 08:33N 31°09' E 122°40'0 0.1
2015-Aug-02 07:30N 31°09' E 122°40'0 0.1
2015-Aug-02 06:24N 31°09' E 122°40'0 0.1
2015-Aug-02 05:24N 31°09' E 122°40'0 0.2
2015-Aug-02 04:33N 31°09' E 122°40'0 0.1
2015-Aug-02 03:33N 31°09' E 122°40'0 0.0
2015-Aug-02 02:30N 31°09' E 122°40'0 0.0
2015-Aug-02 01:33N 31°09' E 122°40'0 0.2
2015-Aug-02 00:33N 31°09' E 122°40'0 0.2
2015-Aug-01 23:33N 31°09' E 122°40'0 0.1
2015-Aug-01 22:33N 31°09' E 122°40'0 0.1
2015-Aug-01 21:33N 31°09' E 122°40'0 0.1
2015-Aug-01 20:33N 31°09' E 122°40'0 0.1
2015-Aug-01 19:33N 31°09' E 122°40'0 0.1
2015-Aug-01 18:33N 31°09' E 122°40'0 0.1
2015-Aug-01 17:33N 31°09' E 122°40'0 0.1
2015-Aug-01 16:33N 31°09' E 122°40'0 0.1
2015-Aug-01 15:33N 31°09' E 122°40'0 0.1
2015-Aug-01 14:33N 31°09' E 122°40'0 0.1
2015-Aug-01 13:24N 31°09' E 122°40'0 0.1
2015-Aug-01 12:33N 31°09' E 122°40'0 0.1
2015-Aug-01 07:24N 31°09' E 122°40'0 0.1
2015-Aug-01 06:12N 31°09' E 122°40'0 0.2
2015-Aug-01 05:09N 31°09' E 122°40'0 0.1
2015-Aug-01 03:03N 31°09' E 122°40'0 0.0
2015-Aug-01 02:24N 31°09' E 122°40'0 0.1
2015-Aug-01 01:12N 31°09' E 122°40'0 0.1
2015-Aug-01 00:33N 31°09' E 122°40'0 0.2
2015-Jul-31 23:30N 31°09' E 122°40'0 0.2
2015-Jul-31 22:30N 31°09' E 122°40'0 0.1
2015-Jul-31 21:33N 31°09' E 122°40'0 0.1
2015-Jul-31 20:33N 31°09' E 122°40'0 0.0
2015-Jul-31 19:30N 31°09' E 122°40'0 0.1
2015-Jul-31 18:30N 31°09' E 122°40'0 0.1
2015-Jul-31 17:33N 31°09' E 122°40'0 0.1
2015-Jul-31 16:33N 31°09' E 122°40'0 0.1
2015-Jul-31 15:27N 31°09' E 122°40'0 0.1
2015-Jul-31 14:09N 31°09' E 122°40'0 0.0
2015-Jul-31 13:33N 31°09' E 122°40'0 0.1
2015-Jul-31 12:33N 31°09' E 122°40'0 0.2
2015-Jul-31 11:30N 31°09' E 122°40'0 0.1
2015-Jul-31 10:30N 31°09' E 122°40'0 0.1
2015-Jul-31 09:33N 31°09' E 122°40'0 0.1
2015-Jul-31 08:33N 31°09' E 122°40'0 0.0
2015-Jul-31 07:33N 31°09' E 122°40'0 0.1
2015-Jul-31 06:30N 31°09' E 122°40'0 0.1
2015-Jul-31 05:24N 31°09' E 122°40'0 0.2
2015-Jul-31 04:33N 31°09' E 122°40'1 1.3
2015-Jul-31 03:33N 31°08' E 122°41'7 6.8
2015-Jul-31 02:33N 31°06' E 122°48'1110.7
2015-Jul-31 01:33N 30°56' E 122°52'17 8.5
2015-Jul-30 23:33N 30°39' E 122°49'9 9.4
2015-Jul-30 22:33N 30°36' E 122°39'8 8.5
2015-Jul-30 21:33N 30°38' E 122°29'4 3.9
2015-Jul-30 20:31N 30°40' E 122°25'0 0.0
2015-Jul-30 19:31N 30°40' E 122°25'0 0.0
2015-Jul-30 18:19N 30°40' E 122°25'0 0.0
2015-Jul-30 13:31N 30°40' E 122°25'0 0.0
2015-Jul-30 09:31N 30°40' E 122°25'0 0.0
2015-Jul-30 07:22N 30°40' E 122°25'0 0.0
2015-Jul-30 06:31N 30°40' E 122°25'0 0.0
2015-Jul-29 17:31N 30°40' E 122°25'0 0.0
2015-Jul-29 16:31N 30°40' E 122°25'0 0.0
2015-Jul-29 13:19N 30°40' E 122°25'0 0.0
2015-Jul-29 06:21N 30°40' E 122°25'2 1.9
2015-Jul-29 05:32N 30°39' E 122°27'5 5.0
2015-Jul-29 04:33N 30°37' E 122°32'2 0.3
2015-Jul-28 23:25N 30°36' E 122°34'0 0.1
2015-Jul-28 22:28N 30°36' E 122°34'0 0.1
2015-Jul-28 21:31N 30°36' E 122°34'0 0.3
2015-Jul-28 20:16N 30°36' E 122°34'0 0.1
2015-Jul-28 19:22N 30°36' E 122°34'0 0.1
2015-Jul-28 18:31N 30°36' E 122°34'0 0.0
2015-Jul-28 17:16N 30°36' E 122°34'0 0.0
2015-Jul-28 16:31N 30°36' E 122°34'0 0.1
2015-Jul-28 15:25N 30°36' E 122°34'0 0.4
2015-Jul-28 14:25N 30°36' E 122°34'0 0.0
2015-Jul-28 13:19N 30°36' E 122°33'0 0.0
2015-Jul-28 09:19N 30°36' E 122°33'0 0.0
2015-Jul-28 07:22N 30°36' E 122°33'0 0.3
2015-Jul-28 06:31N 30°36' E 122°34'0 0.1
2015-Jul-28 05:25N 30°36' E 122°34'0 0.1
2015-Jul-27 23:19N 30°36' E 122°33'0 0.0
2015-Jul-27 21:04N 30°36' E 122°33'0 0.1
2015-Jul-27 20:07N 30°36' E 122°33'0 0.2
2015-Jul-27 19:28N 30°36' E 122°34'0 0.2
2015-Jul-27 18:25N 30°36' E 122°34'0 0.1
2015-Jul-27 17:31N 30°36' E 122°34'  
Track history (hours):
 
Tides and Currents Weather Stations Pressure Air Temp Water Temp Dewpoint Dewpoint Depression Visibility Wind Speed Wind Dir Waves Ship Positions

Cape Peony

Last reported at 2015-Aug-06 17:08 UTC. Time now 2015-Aug-28 09:31 UTC.
Position N 31°19' E 123°19'.
Warning: this ship's position is 21 days out of date.

Length 292 m; draft 9 m.

Type: Ship. MMSI: 373590000.

Date/timePositionNaut miles runAvg speedWind from/ knotsBaromVisibWave heightAir tempDewpointWater temp
2015-Aug-06 17:08N 31°19' E 123°19'10 9.9
2015-Aug-06 16:07N 31°14' E 123°09'2710.5
2015-Aug-06 13:32N 31°05' E 122°39'1110.7
2015-Aug-06 12:33N 31°05' E 122°27'1212.1
2015-Aug-06 11:33N 31°09' E 122°13'1413.6
2015-Aug-06 10:33N 31°15' E 121°59'1211.9
2015-Aug-06 09:33N 31°18' E 121°45'10 9.9
2015-Aug-06 08:33N 31°23' E 121°35'8 7.7
2015-Aug-06 07:33N 31°27' E 121°28'4 4.4
2015-Aug-06 06:33N 31°30' E 121°24'1010.1
2015-Aug-06 05:33N 31°37' E 121°15'1110.9
2015-Aug-06 04:33N 31°45' E 121°06'1312.8
2015-Aug-06 03:33N 31°52' E 120°53'7 1.3
2015-Aug-05 22:11N 31°59' E 120°51'0 0.0
2015-Aug-05 18:29N 31°59' E 120°51'0 0.0
2015-Aug-05 16:32N 31°59' E 120°51'0 0.0
2015-Aug-05 15:32N 31°59' E 120°51'0 0.0
2015-Aug-05 14:32N 31°59' E 120°51'0 0.0
2015-Aug-05 13:32N 31°59' E 120°51'0 0.0
2015-Aug-05 10:11N 31°59' E 120°51'0 0.0
2015-Aug-05 08:29N 31°59' E 120°51'0 0.0
2015-Aug-05 06:20N 31°59' E 120°51'0 0.0
2015-Aug-05 05:26N 31°59' E 120°51'0 0.0
2015-Aug-05 04:23N 31°59' E 120°51'0 0.0
2015-Aug-05 03:23N 31°59' E 120°51'0 0.0
2015-Aug-05 02:32N 31°59' E 120°51'0 0.1
2015-Aug-05 01:32N 31°59' E 120°51'0 0.0
2015-Aug-05 00:29N 31°59' E 120°51'0 0.0
2015-Aug-04 22:17N 31°59' E 120°51'0 0.0
2015-Aug-04 21:29N 31°59' E 120°51'0 0.0
2015-Aug-04 20:26N 31°59' E 120°51'0 0.0
2015-Aug-04 19:32N 31°59' E 120°51'0 0.0
2015-Aug-04 18:32N 31°59' E 120°51'0 0.0
2015-Aug-04 17:32N 31°59' E 120°51'0 0.0
2015-Aug-04 16:32N 31°59' E 120°51'0 0.0
2015-Aug-04 14:32N 31°59' E 120°51'0 0.0
2015-Aug-04 13:32N 31°59' E 120°51'0 0.0
2015-Aug-04 12:29N 31°59' E 120°51'0 0.0
2015-Aug-04 09:14N 31°59' E 120°51'0 0.0
2015-Aug-04 08:17N 31°59' E 120°51'0 0.0
2015-Aug-04 07:32N 31°59' E 120°51'0 0.0
2015-Aug-04 06:29N 31°59' E 120°51'0 0.0
2015-Aug-04 04:32N 31°59' E 120°51'0 0.0
2015-Aug-04 03:26N 31°59' E 120°51'0 0.0
2015-Aug-04 02:32N 31°59' E 120°51'0 0.0
2015-Aug-04 01:29N 31°59' E 120°51'0 0.0
2015-Aug-03 23:32N 31°59' E 120°51'0 0.0
2015-Aug-03 22:29N 31°59' E 120°51'0 0.0
2015-Aug-03 21:26N 31°59' E 120°51'0 0.0
2015-Aug-03 20:26N 31°59' E 120°51'0 0.0
2015-Aug-03 19:32N 31°59' E 120°51'0 0.0
2015-Aug-03 18:17N 31°59' E 120°51'0 0.0
2015-Aug-03 17:26N 31°59' E 120°51'0 0.0
2015-Aug-03 16:17N 31°59' E 120°51'0 0.0
2015-Aug-03 15:32N 31°59' E 120°51'0 0.0
2015-Aug-03 12:27N 31°59' E 120°51'3 3.0
2015-Aug-03 11:32N 31°56' E 120°52'4 4.4
2015-Aug-03 10:31N 31°52' E 120°54'4 4.1
2015-Aug-03 09:33N 31°48' E 120°55'8 7.6
2015-Aug-03 08:33N 31°46' E 121°04'1313.3
2015-Aug-03 07:33N 31°37' E 121°16'1212.4
2015-Aug-03 06:33N 31°29' E 121°27'9 8.5
2015-Aug-03 05:33N 31°24' E 121°34'9 9.1
2015-Aug-03 04:33N 31°19' E 121°44'1010.2
2015-Aug-03 03:33N 31°16' E 121°55'1110.4
2015-Aug-03 02:33N 31°13' E 122°07'1211.9
2015-Aug-03 01:33N 31°06' E 122°18'1111.0
2015-Aug-03 00:33N 31°07' E 122°31'8 7.3
2015-Aug-02 23:27N 31°08' E 122°40'0 0.5
2015-Aug-02 22:33N 31°09' E 122°40'0 0.0
2015-Aug-02 21:18N 31°09' E 122°40'0 0.1
2015-Aug-02 20:33N 31°09' E 122°40'0 0.0
2015-Aug-02 19:24N 31°09' E 122°40'0 0.1
2015-Aug-02 18:33N 31°09' E 122°40'0 0.1
2015-Aug-02 17:33N 31°09' E 122°40'0 0.1
2015-Aug-02 16:27N 31°09' E 122°40'0 0.1
2015-Aug-02 15:33N 31°09' E 122°40'0 0.0
2015-Aug-02 14:33N 31°09' E 122°40'0 0.1
2015-Aug-02 13:33N 31°09' E 122°40'0 0.2
2015-Aug-02 12:33N 31°09' E 122°40'0 0.2
2015-Aug-02 11:30N 31°09' E 122°40'0 0.1
2015-Aug-02 10:24N 31°09' E 122°40'0 0.1
2015-Aug-02 09:33N 31°09' E 122°40'0 0.1
2015-Aug-02 08:33N 31°09' E 122°40'0 0.1
2015-Aug-02 07:30N 31°09' E 122°40'0 0.1
2015-Aug-02 06:24N 31°09' E 122°40'0 0.1
2015-Aug-02 05:24N 31°09' E 122°40'0 0.2
2015-Aug-02 04:33N 31°09' E 122°40'0 0.1
2015-Aug-02 03:33N 31°09' E 122°40'0 0.0
2015-Aug-02 02:30N 31°09' E 122°40'0 0.0
2015-Aug-02 01:33N 31°09' E 122°40'0 0.2
2015-Aug-02 00:33N 31°09' E 122°40'0 0.2
2015-Aug-01 23:33N 31°09' E 122°40'0 0.1
2015-Aug-01 22:33N 31°09' E 122°40'0 0.1
2015-Aug-01 21:33N 31°09' E 122°40'0 0.1
2015-Aug-01 20:33N 31°09' E 122°40'0 0.1
2015-Aug-01 19:33N 31°09' E 122°40'0 0.1
2015-Aug-01 18:33N 31°09' E 122°40'0 0.1
2015-Aug-01 17:33N 31°09' E 122°40'0 0.1
2015-Aug-01 16:33N 31°09' E 122°40'0 0.1
2015-Aug-01 15:33N 31°09' E 122°40'0 0.1
2015-Aug-01 14:33N 31°09' E 122°40'0 0.1
2015-Aug-01 13:24N 31°09' E 122°40'0 0.1
2015-Aug-01 12:33N 31°09' E 122°40'0 0.1
2015-Aug-01 07:24N 31°09' E 122°40'0 0.1
2015-Aug-01 06:12N 31°09' E 122°40'0 0.2
2015-Aug-01 05:09N 31°09' E 122°40'0 0.1
2015-Aug-01 03:03N 31°09' E 122°40'0 0.0
2015-Aug-01 02:24N 31°09' E 122°40'0 0.1
2015-Aug-01 01:12N 31°09' E 122°40'0 0.1
2015-Aug-01 00:33N 31°09' E 122°40'0 0.2
2015-Jul-31 23:30N 31°09' E 122°40'0 0.2
2015-Jul-31 22:30N 31°09' E 122°40'0 0.1
2015-Jul-31 21:33N 31°09' E 122°40'0 0.1
2015-Jul-31 20:33N 31°09' E 122°40'0 0.0
2015-Jul-31 19:30N 31°09' E 122°40'0 0.1
2015-Jul-31 18:30N 31°09' E 122°40'0 0.1
2015-Jul-31 17:33N 31°09' E 122°40'0 0.1
2015-Jul-31 16:33N 31°09' E 122°40'0 0.1
2015-Jul-31 15:27N 31°09' E 122°40'0 0.1
2015-Jul-31 14:09N 31°09' E 122°40'0 0.0
2015-Jul-31 13:33N 31°09' E 122°40'0 0.1
2015-Jul-31 12:33N 31°09' E 122°40'0 0.2
2015-Jul-31 11:30N 31°09' E 122°40'0 0.1
2015-Jul-31 10:30N 31°09' E 122°40'0 0.1
2015-Jul-31 09:33N 31°09' E 122°40'0 0.1
2015-Jul-31 08:33N 31°09' E 122°40'0 0.0
2015-Jul-31 07:33N 31°09' E 122°40'0 0.1
2015-Jul-31 06:30N 31°09' E 122°40'0 0.1
2015-Jul-31 05:24N 31°09' E 122°40'0 0.2
2015-Jul-31 04:33N 31°09' E 122°40'1 1.3
2015-Jul-31 03:33N 31°08' E 122°41'7 6.8
2015-Jul-31 02:33N 31°06' E 122°48'1110.7
2015-Jul-31 01:33N 30°56' E 122°52'17 8.5
2015-Jul-30 23:33N 30°39' E 122°49'9 9.4
2015-Jul-30 22:33N 30°36' E 122°39'8 8.5
2015-Jul-30 21:33N 30°38' E 122°29'4 3.9
2015-Jul-30 20:31N 30°40' E 122°25'0 0.0
2015-Jul-30 19:31N 30°40' E 122°25'0 0.0
2015-Jul-30 18:19N 30°40' E 122°25'0 0.0
2015-Jul-30 13:31N 30°40' E 122°25'0 0.0
2015-Jul-30 09:31N 30°40' E 122°25'0 0.0
2015-Jul-30 07:22N 30°40' E 122°25'0 0.0
2015-Jul-30 06:31N 30°40' E 122°25'0 0.0
2015-Jul-29 17:31N 30°40' E 122°25'0 0.0
2015-Jul-29 16:31N 30°40' E 122°25'0 0.0
2015-Jul-29 13:19N 30°40' E 122°25'0 0.0
2015-Jul-29 06:21N 30°40' E 122°25'2 1.9
2015-Jul-29 05:32N 30°39' E 122°27'5 5.0
2015-Jul-29 04:33N 30°37' E 122°32'2 0.3
2015-Jul-28 23:25N 30°36' E 122°34'0 0.1
2015-Jul-28 22:28N 30°36' E 122°34'0 0.1
2015-Jul-28 21:31N 30°36' E 122°34'0 0.3
2015-Jul-28 20:16N 30°36' E 122°34'0 0.1
2015-Jul-28 19:22N 30°36' E 122°34'0 0.1
2015-Jul-28 18:31N 30°36' E 122°34'0 0.0
2015-Jul-28 17:16N 30°36' E 122°34'0 0.0
2015-Jul-28 16:31N 30°36' E 122°34'0 0.1
2015-Jul-28 15:25N 30°36' E 122°34'0 0.4
2015-Jul-28 14:25N 30°36' E 122°34'0 0.0
2015-Jul-28 13:19N 30°36' E 122°33'0 0.0
2015-Jul-28 09:19N 30°36' E 122°33'0 0.0
2015-Jul-28 07:22N 30°36' E 122°33'0 0.3
2015-Jul-28 06:31N 30°36' E 122°34'0 0.1
2015-Jul-28 05:25N 30°36' E 122°34'0 0.1
2015-Jul-27 23:19N 30°36' E 122°33'0 0.0
2015-Jul-27 21:04N 30°36' E 122°33'0 0.1
2015-Jul-27 20:07N 30°36' E 122°33'0 0.2
2015-Jul-27 19:28N 30°36' E 122°34'0 0.2
2015-Jul-27 18:25N 30°36' E 122°34'0 0.1
2015-Jul-27 17:31N 30°36' E 122°34'  

Dump ship's entire track history